656  
ASUS41 KBGM 201010  
RWRBGM  
 
REGIONAL WEATHER ROUNDUP  
NATIONAL WEATHER SERVICE BINGHAMTON NY  
600 AM EDT WED SEP 20 2017  
 
NOTE: "FAIR" INDICATES FEW OR NO CLOUDS BELOW 12,000 FEET WITH NO  
SIGNIFICANT WEATHER AND/OR S TO VISIBILITY
.  
 
* = STATION(S) THAT DOES NOT REPORT PRECIPITATION, SUCH AS RAIN,  
SNOW, ETC, ALSO NO THUNDER OR FOG.
 
 
NYZ009-015>018-022>025-036-037-044>046-055>057-062-201100   
..CENTRAL NEW YORK
 
 
 
CITY SKY/WX TMP DP RH WIND PRES REMARKS
 
BINGHAMTON CLEAR 58 57 97 N3 30.01S  
CORTLAND FOG 54 54 100 CALM 30.03R VSB 1/4  
DANSVILLE CLEAR 57 55 93 SE8 30.03S  
ELMIRA FOG 59 59 100 W7 30.01S VSB 1/4  
SENECA FALLS FOG 57 57 100 CALM 30.01S VSB 3/4  
ITHACA CLEAR 54 53 97 E5 30.03R FOG  
HAMILTON CLOUDY 52 50 93 CALM 30.02S VSB 1/2  
HORNELL FOG 57 55 94 CALM 30.08R VSB 1/2  
MONTICELLO PTCLDY 63 59 87 N6 29.97R  
ONEONTA CLEAR 57 N/A N/A CALM 30.01S  
PENN YAN FOG 61 60 97 W5 30.02S VSB 1/4  
ROME CLEAR 57 56 96 CALM 30.01S  
SIDNEY FOG 55 55 100 CALM 30.01R VSB 1/2  
SYRACUSE PTCLDY 58 58 100 CALM 29.99S  

 
 
PAZ038>040-043-044-047-048-072-201100   
..NORTHEAST PENNSYLVANIA
 
 
 
CITY SKY/WX TMP DP RH WIND PRES REMARKS
 
HAZLETON N/A 63 57 82 NW7 30.01R  
SCRANTON CLEAR 59 58 96 CALM 29.97R  

 

 
KEY  
WCI = WIND CHILL INDEX  
VSB = VISIBILITY  
HX = HEAT INDEX  

 
 
 
CLICK HERE TO GO TO PREVIOUS BULLETINS.

The Nexlab NY Page
The Nexlab PA Page Main Text Page